Wind_Speed
3 2 2 2 2 3 3 4 4 3 3 2 2 2 3 3 3 4 4 5 5 6 6 6 6 6 6 6 5 5 5 5 5 4 4 4 4 3 2 1 0 1 1
4 4 3 4 4 4 4 5 5 5 4 4 3 3 3 3 4 4 5 5 5 5 6 6 6 6 6 6 5 5 5 5 5 4 4 4 4 3 2 1 1 1 1
6 6 5 5 6 6 6 6 6 6 5 5 5 4 4 4 5 5 5 5 5 5 5 6 6 6 6 6 5 5 5 5 5 4 4 4 4 4 2 1 2 2 2
7 7 7 6 7 7 8 8 8 7 7 6 6 6 6 6 6 6 6 6 6 6 6 6 6 6 6 6 6 5 5 5 5 5 5 5 4 4 3 2 2 2 3
7 7 7 7 8 9 9 9 9 8 8 7 7 7 7 7 7 7 7 7 7 7 7 7 7 7 7 7 7 7 6 6 6 6 6 5 5 4 4 3 3 4 4
8 8 8 8 9 10 10 10 10 9 9 9 8 9 9 9 8 8 8 8 8 8 8 8 8 8 8 8 8 8 8 7 7 7 7 6 6 6 5 5 5 6 6
10 9 9 9 10 10 11 11 11 11 11 10 10 10 10 10 10 9 9 9 9 9 9 9 9 9 9 9 9 9 9 9 8 8 8 8 8 8 7 7 7 7 7
11 11 11 11 11 11 12 12 12 12 12 12 12 12 11 11 11 11 11 11 11 11 11 11 11 11 11 10 10 10 11 10 10 9 9 9 9 9 9 9 9 8 8
12 13 13 13 13 13 14 14 14 13 12 12 12 12 12 12 12 12 12 12 12 12 12 12 12 12 13 12 12 12 12 12 12 11 11 10 10 10 10 10 10 10 9
14 14 14 14 14 14 15 15 15 15 14 13 13 13 13 13 13 13 13 13 13 13 14 14 14 13 14 14 14 14 14 14 14 14 13 13 12 11 11 11 11 11 10
14 14 15 15 15 16 16 16 16 16 15 15 14 14 14 14 14 14 14 14 15 15 15 15 15 15 15 15 16 16 15 15 15 15 15 14 13 13 13 12 12 12 11
16 16 15 15 16 17 17 17 17 17 17 16 15 15 15 16 15 15 15 16 17 17 17 17 17 17 17 16 17 17 17 17 17 17 16 16 15 15 15 14 13 12 12
16 16 17 18 18 19 19 20 19 19 18 18 17 17 17 17 17 17 16 17 18 18 19 19 19 19 18 18 18 18 18 19 18 19 18 18 18 17 17 16 15 14 14
18 17 18 19 21 21 21 21 21 20 20 19 19 18 18 18 18 18 18 18 19 19 20 20 20 21 21 20 20 20 20 20 20 21 20 20 20 19 19 18 17 17 16
19 19 19 20 21 22 22 23 22 22 21 21 21 20 20 20 20 20 20 20 20 21 21 21 21 22 22 21 21 21 22 23 24 23 22 22 21 21 20 19 19 18 17
21 21 21 22 22 23 23 23 23 23 22 22 22 22 21 21 21 21 21 21 21 21 22 21 21 22 22 22 22 22 22 23 24 23 23 23 22 22 21 21 21 20 19
21 22 23 23 24 24 24 24 24 24 23 23 23 23 22 22 21 21 22 22 23 23 23 22 22 23 23 24 23 23 23 23 24 24 24 24 24 23 23 23 23 23 22
22 23 24 24 24 24 24 24 26 26 25 24 24 23 23 22 23 23 23 24 24 24 24 24 24 24 24 25 25 25 24 24 24 24 24 23 24 24 24 24 25 24 24
24 25 25 25 25 25 26 26 27 26 25 25 24 23 23 23 24 24 25 25 24 25 24 25 25 25 25 26 26 27 26 26 25 25 25 25 25 25 25 25 25 25 25
25 25 25 24 25 26 27 26 25 25 25 24 23 24 24 24 25 25 25 25 25 25 26 26 26 26 26 26 27 27 27 26 26 25 26 26 25 25 26 26 26 26 26
25 26 25 25 25 26 26 26 25 24 23 23 24 24 24 25 25 25 25 26 26 26 27 27 26 27 27 27 27 27 27 27 27 27 27 27 26 26 27 27 26 26 26
25 25 26 25 25 25 25 25 24 24 23 23 24 24 24 24 24 25 26 26 25 26 27 27 27 27 27 27 28 28 28 28 27 27 27 27 27 27 27 27 27 26 26
26 26 25 26 25 25 25 26 24 23 24 24 24 24 25 25 25 26 26 27 26 26 27 27 27 28 27 27 28 28 27 28 28 28 28 28 28 28 28 28 28 27 27
26 26 25 24 25 25 26 24 24 25 26 25 25 25 25 26 26 26 27 27 27 27 26 27 28 28 27 27 27 27 28 27 28 28 27 28 28 28 28 28 29 29 28
26 26 26 25 25 25 25 25 25 26 26 26 26 26 26 27 27 27 28 27 27 27 27 28 28 27 26 26 27 27 28 28 27 28 28 28 28 28 28 27 27 28 29
27 26 25 25 25 25 25 27 27 27 27 27 27 27 28 28 28 28 28 27 28 28 28 27 27 27 27 27 27 27 27 27 28 28 28 27 27 27 27 27 27 27 28
Wind_Direction
334 329 314 301 294 292 293 292 290 297 302 312 327 347 -0 3 5 9 11 12 11 7 4 2 359 354 352 354 356 357 358 3 5 5 1 2 1 1 6 358 258 225 220
314 310 299 289 282 275 278 281 284 290 296 297 303 312 325 336 341 344 348 352 353 351 348 348 347 343 342 345 347 349 351 355 356 351 349 348 348 350 352 324 267 244 233
305 303 292 286 280 277 279 283 286 290 292 293 297 301 308 315 323 328 328 330 330 329 326 330 331 329 329 333 333 334 336 340 342 337 336 337 334 330 334 310 273 250 238
297 297 292 287 283 282 285 287 286 287 289 290 293 298 302 305 308 311 312 312 311 312 308 312 314 314 316 319 319 318 319 320 320 322 321 322 322 319 301 284 267 251 244
296 292 294 289 285 284 286 287 284 284 285 286 288 294 297 299 300 300 300 302 300 299 298 301 304 303 303 307 308 307 306 307 305 306 306 305 306 301 285 267 253 245 241
296 295 291 288 287 283 284 286 284 284 284 284 287 291 293 293 294 294 295 296 293 290 290 292 294 295 297 298 297 297 296 296 297 296 295 292 291 286 273 263 254 249 238
296 295 292 286 285 284 284 284 284 284 284 285 286 288 290 292 292 291 293 293 290 287 287 289 287 285 288 290 288 288 287 286 287 286 286 286 285 282 274 263 256 250 238
292 291 289 285 284 284 285 283 282 282 283 283 285 286 287 289 290 289 290 290 287 283 284 285 284 282 281 281 280 280 280 278 278 279 280 282 280 277 275 270 262 251 243
287 287 285 282 282 283 283 282 282 281 281 283 285 285 286 287 287 286 286 286 286 284 283 282 283 282 279 277 275 274 274 273 273 274 274 274 273 275 275 272 267 256 248
286 285 282 281 281 281 281 282 282 281 281 282 284 283 283 285 285 285 286 285 284 284 282 281 281 281 279 276 273 272 271 271 270 271 271 271 269 271 271 273 272 261 249
285 283 278 278 279 279 282 283 283 281 279 281 284 285 283 284 284 286 287 286 285 283 282 281 280 279 279 276 273 271 270 269 269 268 267 267 266 266 268 270 272 266 253
283 278 275 276 277 276 279 281 281 280 279 280 283 285 283 281 283 286 287 286 284 283 280 280 279 278 276 273 271 269 268 267 268 267 266 264 264 263 264 267 270 269 261
282 276 274 274 276 276 275 276 277 278 278 278 279 281 282 281 282 285 286 288 287 285 281 278 277 276 275 273 271 269 267 267 265 266 265 264 263 262 262 264 263 266 264
280 276 274 274 274 274 273 272 273 274 275 275 275 278 280 281 281 283 286 287 289 287 284 281 278 275 274 273 270 268 266 265 265 265 264 263 263 261 262 264 263 262 264
279 279 277 278 277 276 273 271 271 271 271 271 272 275 276 279 282 284 285 285 287 286 284 282 279 277 275 274 271 269 266 264 265 265 264 262 260 259 260 261 262 261 260
280 280 280 280 278 275 272 270 269 267 267 269 273 275 276 279 281 282 283 285 286 285 284 280 279 277 276 274 271 268 266 265 266 264 264 260 258 258 258 259 261 262 261
280 280 280 280 278 274 270 267 268 266 265 266 269 272 273 275 278 280 280 281 283 283 282 280 279 278 277 275 274 271 267 266 265 265 263 259 258 258 258 258 259 262 261
280 280 278 279 278 273 269 266 266 265 262 262 264 269 271 272 277 279 279 279 279 280 280 279 278 276 275 274 273 271 269 268 266 265 264 262 260 258 257 258 258 261 262
279 279 277 275 274 273 268 266 266 264 260 261 263 266 270 274 277 278 278 278 279 279 279 278 277 275 275 273 271 269 270 268 268 266 265 264 263 260 259 258 257 260 263
282 280 278 275 273 273 270 268 268 264 261 260 264 266 270 274 276 276 277 278 279 279 278 278 277 275 274 272 270 270 269 269 267 265 265 263 262 261 259 258 258 259 262
283 280 276 274 275 274 271 270 267 266 261 263 266 268 272 274 275 276 278 279 280 279 279 278 277 275 274 271 270 269 269 269 268 267 266 263 261 261 259 258 259 259 261
281 282 277 274 275 275 273 269 267 266 267 268 269 272 273 274 277 279 279 279 280 280 280 279 277 275 274 271 269 268 270 269 270 268 265 262 262 261 259 259 259 260 260
279 280 276 272 276 275 272 270 269 270 269 270 271 272 271 272 276 278 279 279 279 279 279 279 278 276 274 270 269 269 270 270 271 269 266 264 263 261 259 258 259 259 260
277 277 273 273 275 277 276 271 267 269 269 270 272 272 272 272 275 278 279 279 279 278 278 278 279 276 273 270 268 268 269 268 269 267 266 265 263 261 260 258 258 259 258
277 276 272 274 277 279 275 270 267 268 268 270 272 273 272 273 276 277 278 280 279 279 279 279 278 275 271 269 267 268 269 268 267 266 266 264 262 261 259 258 257 258 257
276 273 271 275 277 277 276 272 270 270 271 272 272 272 273 275 276 277 278 279 280 281 280 279 278 274 270 269 268 268 268 268 266 266 265 263 261 261 261 260 258 258 258
Height
5918 5917 5917 5917 5916 5915 5915 5915 5914 5913 5912 5912 5911 5910 5910 5909 5909 5908 5908 5907 5907 5906 5906 5905 5904 5904 5904 5903 5902 5902 5901 5900 5899 5898 5897 5897 5896 5895 5894 5894 5893 5893 5893
5917 5916 5916 5916 5915 5915 5914 5913 5913 5912 5911 5911 5910 5909 5909 5908 5908 5908 5907 5907 5906 5905 5905 5904 5904 5903 5903 5902 5901 5901 5900 5899 5899 5898 5897 5896 5895 5895 5894 5893 5893 5893 5893
5915 5914 5914 5914 5914 5913 5913 5912 5912 5911 5910 5909 5909 5908 5908 5907 5907 5906 5906 5905 5905 5904 5904 5903 5903 5902 5902 5901 5901 5900 5899 5899 5898 5897 5896 5895 5894 5894 5894 5893 5893 5892 5892
5914 5913 5912 5912 5912 5912 5911 5911 5910 5909 5909 5908 5908 5907 5906 5906 5905 5905 5905 5904 5904 5903 5902 5902 5901 5901 5901 5900 5900 5899 5898 5898 5897 5896 5895 5894 5894 5893 5893 5893 5892 5892 5892
5912 5911 5911 5911 5911 5910 5910 5909 5908 5908 5907 5907 5906 5906 5905 5905 5904 5904 5903 5903 5902 5902 5901 5900 5900 5899 5899 5899 5898 5898 5897 5896 5896 5895 5894 5894 5893 5892 5892 5892 5891 5891 5891
5910 5909 5909 5909 5908 5908 5907 5907 5906 5906 5905 5905 5904 5904 5904 5903 5903 5902 5902 5901 5900 5900 5899 5899 5898 5898 5897 5897 5897 5896 5896 5895 5894 5894 5893 5892 5892 5891 5891 5891 5890 5890 5890
5908 5907 5907 5907 5906 5906 5905 5905 5904 5904 5903 5903 5902 5902 5902 5901 5901 5900 5900 5899 5898 5898 5897 5896 5896 5896 5895 5895 5894 5894 5894 5893 5893 5892 5891 5891 5891 5890 5889 5889 5888 5888 5888
5906 5905 5905 5904 5904 5904 5903 5903 5902 5901 5901 5901 5900 5900 5899 5899 5898 5898 5897 5897 5896 5895 5895 5894 5893 5893 5893 5892 5892 5892 5892 5891 5891 5890 5890 5889 5889 5888 5888 5887 5887 5886 5886
5904 5903 5902 5902 5901 5901 5900 5900 5899 5899 5898 5898 5897 5897 5896 5896 5896 5895 5894 5893 5893 5892 5892 5891 5891 5890 5890 5889 5889 5889 5889 5888 5888 5888 5887 5887 5886 5886 5886 5885 5884 5884 5884
5901 5901 5899 5899 5898 5898 5897 5897 5896 5896 5895 5895 5894 5894 5893 5893 5892 5891 5891 5890 5890 5889 5889 5888 5888 5887 5887 5886 5886 5886 5886 5885 5885 5885 5884 5884 5884 5884 5883 5883 5882 5882 5882
5899 5898 5896 5896 5895 5894 5894 5893 5893 5892 5892 5892 5891 5890 5890 5889 5888 5888 5887 5887 5886 5886 5885 5885 5884 5884 5883 5883 5882 5882 5882 5882 5882 5882 5881 5882 5881 5881 5881 5880 5880 5880 5879
5895 5894 5893 5893 5892 5891 5890 5889 5889 5889 5888 5888 5888 5887 5886 5885 5885 5884 5883 5882 5882 5882 5881 5881 5880 5880 5879 5879 5878 5878 5878 5878 5878 5878 5878 5878 5878 5878 5878 5877 5877 5877 5876
5891 5891 5890 5889 5888 5887 5886 5886 5885 5885 5885 5884 5884 5883 5882 5881 5881 5880 5879 5878 5877 5877 5876 5876 5875 5875 5875 5874 5874 5874 5874 5874 5874 5874 5874 5874 5874 5874 5874 5874 5874 5874 5873
5887 5886 5886 5885 5884 5883 5882 5881 5881 5881 5881 5880 5880 5879 5878 5877 5877 5876 5875 5874 5873 5872 5872 5871 5871 5870 5870 5869 5869 5869 5869 5869 5869 5869 5869 5870 5870 5870 5870 5870 5870 5870 5870
5883 5882 5881 5880 5879 5878 5877 5877 5876 5876 5876 5875 5875 5874 5874 5873 5873 5872 5871 5870 5869 5868 5867 5866 5866 5865 5865 5864 5864 5864 5864 5864 5864 5864 5864 5865 5865 5866 5866 5866 5866 5866 5866
5878 5877 5877 5876 5874 5873 5872 5871 5871 5871 5871 5870 5870 5869 5869 5868 5868 5867 5866 5865 5864 5863 5862 5861 5861 5860 5860 5859 5859 5859 5859 5859 5859 5859 5859 5859 5860 5861 5861 5861 5861 5861 5861
5874 5873 5872 5871 5869 5868 5867 5866 5866 5865 5865 5865 5865 5864 5864 5863 5863 5862 5862 5860 5859 5858 5858 5857 5856 5855 5854 5854 5854 5854 5853 5853 5853 5854 5854 5854 5855 5855 5856 5857 5857 5857 5857
5869 5868 5867 5866 5864 5863 5862 5861 5860 5859 5859 5859 5859 5859 5858 5858 5858 5857 5856 5855 5854 5853 5852 5851 5850 5850 5849 5849 5848 5848 5848 5848 5848 5848 5848 5849 5849 5850 5850 5851 5852 5852 5852
5864 5863 5861 5860 5859 5857 5856 5855 5854 5853 5853 5853 5852 5853 5853 5853 5852 5851 5851 5850 5848 5847 5846 5845 5844 5844 5843 5843 5842 5842 5842 5842 5842 5842 5843 5843 5844 5844 5845 5845 5846 5846 5847
5858 5857 5856 5854 5853 5852 5850 5850 5849 5848 5848 5847 5847 5847 5847 5847 5846 5845 5845 5844 5842 5842 5841 5839 5839 5838 5837 5837 5836 5836 5836 5836 5836 5836 5837 5837 5838 5838 5839 5839 5840 5841 5841
5852 5851 5849 5848 5847 5846 5845 5844 5843 5843 5842 5842 5841 5841 5841 5841 5840 5839 5839 5838 5836 5835 5834 5833 5832 5831 5831 5830 5830 5830 5830 5830 5830 5830 5831 5831 5832 5833 5833 5833 5834 5835 5835
5846 5845 5843 5841 5841 5840 5839 5838 5838 5837 5837 5837 5836 5835 5835 5835 5834 5833 5832 5831 5830 5829 5828 5827 5826 5825 5824 5824 5824 5823 5823 5824 5824 5824 5824 5825 5826 5826 5827 5827 5828 5828 5829
5840 5839 5837 5835 5835 5834 5833 5833 5833 5832 5832 5831 5830 5830 5829 5828 5828 5827 5826 5825 5824 5823 5822 5821 5819 5818 5817 5817 5817 5817 5817 5817 5817 5817 5817 5818 5819 5820 5820 5821 5821 5822 5823
5835 5833 5831 5829 5829 5828 5827 5827 5827 5826 5825 5825 5824 5823 5823 5822 5821 5820 5820 5818 5817 5816 5815 5814 5813 5811 5811 5810 5810 5810 5811 5811 5811 5811 5811 5811 5812 5813 5813 5814 5815 5816 5817
5828 5827 5826 5824 5823 5822 5821 5820 5820 5820 5819 5818 5817 5817 5816 5816 5815 5814 5813 5811 5810 5809 5808 5806 5805 5804 5803 5804 5804 5804 5803 5803 5803 5804 5804 5805 5805 5806 5806 5807 5808 5809 5810
5821 5820 5819 5818 5817 5816 5815 5814 5813 5813 5812 5811 5811 5810 5809 5809 5808 5807 5806 5804 5803 5802 5800 5799 5798 5797 5797 5797 5797 5796 5796 5796 5796 5796 5797 5797 5798 5799 5799 5800 5801 5802 5803